Weather in Shiryaevo

Russia / Voronezh Oblast     50°20′28″N   40°59′02″E
temp.,
°C
wind,
m/s
gust,
m/s
humid.,
%
clouds,
%
prec.,
mm/h
press.,
hPa
HPBL,
m
27 february, sat
sat2700:00+3w61298100 0.1 1011338
03:00+2w51296100 0.3 1010397
06:00+2w41097100 0.0 1009337
09:00+2w51195100 0.1 1010489
12:00+3wnw61082100 0.1 1009879
15:00+3wnw61185100 0.2 1009799
18:00+2wnw6129381 0.0 1009623
21:00+1nw6128990 0.0 1011597
28 february, sun
sun2800:000n589199 0.1 1012468
03:00−2nnw488164 0.1 1014476
06:00−3nnw36780 0.0 1015461
09:00−3nnw357510 0.0 1016499
12:000nw467053 0.0 1016654
15:00+1nw577163 0.0 1016806
18:00−1nw238272 0.0 101657
21:00−1w119284 0.0 101823
1 march, mon
mon100:00−1wsw119997 0.5 101839
03:00−1nnw229896 0.8 102097
06:00−3ne459091 0.1 1022287
09:00−4nne458162 0.1 1024352
12:00−2nne336855 0.0 1025570
15:00−1n336360 0.0 1026742
18:00−2nnw127343 0.0 102621
21:00−3wnw227621 0.0 102760
2 march, tue
tue200:00−3wsw35810 0.0 1026202
03:00−3wsw5108241 0.0 1025464
06:00−2wsw61279100 0.0 1022580
09:00−1wsw81373100 0.0 1019694
12:000wsw91593100 0.6 1016800
15:00+1w81497100 2.6 1013795
18:00+1nw61286100 0.3 1013744
21:00−1nw6138870 0.3 1014496
3 march, wed
wed300:000wnw6128593 0.1 1015488
03:00−2wnw5118884 0.1 1015378
06:00−1wnw6119366 0.1 1015572
09:00−1nw7107977 0.2 10151073
12:000nnw71081100 0.5 10161068
15:00+1nnw71069100 0.8 10171326
18:00−1nnw5117041 0.1 1019755
21:00−2nw5117825 0.1 1021791